Location: Eferding
(48.3167°N, 14.0167°E)
Time: 15:24:28
(UTC+00:00)

NOSS 3-1 (A) - Pass Details

Date: 12 November 2019
Orbit: 769 x 1443 km, 63.4° (Epoch: 01 December)

Event Time Altitude Azimuth Distance (km) Brightness Sun altitude
Rises 18:32:46 0° 224° (SW) 3,315 6.8 -30.5°
Reaches altitude 10° 18:35:04 10° 226° (SW) 2,438 6.0 -30.9°
Enters shadow 18:39:49 65° 251° (WSW) 988 3.6 -31.6°
